GW6176 Weather Reports


time (UTC)temp
C
wind
direction
speed
KPH
gust
KPH
rain 1hr
cm
rain 24hr
cm
rain mn
cm
humidity
%
barometer
mb
20260504215337 23 212 27.4 51.5 0.00 0.00 0.00 41 1002.9
20260504214834 24 224 29.0 43.5 0.00 0.00 0.00 41 1002.9
20260504214331 24 215 33.8 41.8 0.00 0.00 0.00 40 1002.8
20260504213827 24 216 27.4 61.2 0.00 0.00 0.00 41 1003.0
20260504213323 23 217 29.0 59.5 0.00 0.00 0.00 41 1003.0
20260504212821 24 227 40.2 53.1 0.00 0.00 0.00 41 1003.0
20260504212317 24 223 24.1 41.8 0.00 0.00 0.00 42 1002.8
20260504211815 24 218 17.7 53.1 0.00 0.00 0.00 42 1003.0
20260504211310 23 199 22.5 40.2 0.00 0.00 0.00 42 1002.9
20260504210808 24 218 48.3 54.7 0.00 0.00 0.00 41 1003.1
20260504210305 24 212 43.5 45.1 0.00 0.00 0.00 41 1002.8
20260504205803 24 230 22.5 38.6 0.00 0.00 0.00 43 1002.7
20260504205300 24 195 33.8 49.9 0.00 0.00 0.00 42 1002.9
20260504204758 24 226 22.5 46.7 0.00 0.00 0.00 43 1003.0
20260504204256 24 233 27.4 45.1 0.00 0.00 0.00 44 1003.2
20260504203755 24 209 35.4 38.6 0.00 0.00 0.00 43 1003.1
20260504203252 24 223 37.0 40.2 0.00 0.00 0.00 42 1002.8
20260504202752 24 266 11.3 40.2 0.00 0.00 0.00 45 1002.9
20260504202250 24 234 27.4 45.1 0.00 0.00 0.00 44 1003.1
20260504201747 24 217 33.8 37.0 0.00 0.00 0.00 44 1002.9
20260504201244 23 212 33.8 40.2 0.00 0.00 0.00 44 1003.2
20260504200742 24 234 24.1 49.9 0.00 0.00 0.00 44 1003.3
20260504200237 24 221 16.1 43.5 0.00 0.00 0.00 44 1003.2
20260504195734 23 215 41.8 43.5 0.00 0.00 0.00 45 1003.3
20260504195230 23 202 30.6 41.8 0.00 0.00 0.00 44 1003.6
20260504194727 23 213 22.5 43.5 0.00 0.00 0.00 45 1003.3
20260504194223 23 210 30.6 33.8 0.00 0.00 0.00 45 1003.9
20260504193720 23 215 48.3 64.4 0.00 0.00 0.00 44 1003.8
20260504193218 23 217 32.2 51.5 0.00 0.00 0.00 44 1004.1
20260504192716 23 219 37.0 45.1 0.00 0.00 0.00 44 1004.1
20260504192213 23 202 38.6 56.3 0.00 0.00 0.00 44 1004.0
20260504191712 23 206 19.3 41.8 0.00 0.00 0.00 45 1003.9
20260504191208 23 210 20.9 43.5 0.00 0.00 0.00 46 1003.9
20260504190703 23 207 33.8 59.5 0.00 0.00 0.00 44 1003.7
20260504190200 23 235 30.6 43.5 0.00 0.00 0.00 46 1003.9
20260504185657 23 187 22.5 46.7 0.00 0.00 0.00 46 1003.9
20260504185153 23 220 33.8 45.1 0.00 0.00 0.00 46 1003.6
20260504184649 23 199 27.4 38.6 0.00 0.00 0.00 47 1004.2
20260504184144 23 210 37.0 41.8 0.00 0.00 0.00 46 1004.0
20260504183642 23 206 22.5 46.7 0.00 0.00 0.00 48 1004.2
20260504183139 23 183 24.1 38.6 0.00 0.00 0.00 48 1004.0
20260504182637 23 197 25.7 40.2 0.00 0.00 0.00 49 1004.2
20260504182134 22 219 27.4 40.2 0.00 0.00 0.00 49 1004.3
20260504181631 23 208 35.4 43.5 0.00 0.00 0.00 49 1004.1
20260504181129 22 176 25.7 45.1 0.00 0.00 0.00 51 1004.4
20260504180628 22 215 20.9 37.0 0.00 0.00 0.00 51 1004.3
20260504180126 22 207 24.1 38.6 0.00 0.00 0.00 51 1004.2
20260504175623 22 216 24.1 46.7 0.00 0.00 0.00 49 1004.3
20260504175120 22 195 17.7 41.8 0.00 0.00 0.00 49 1004.4
20260504174618 22 182 16.1 41.8 0.00 0.00 0.00 51 1004.4
20260504174114 22 206 14.5 24.1 0.00 0.00 0.00 52 1004.7
20260504173611 21 156 16.1 40.2 0.00 0.00 0.00 51 1004.7
20260504173109 22 193 11.3 25.7 0.00 0.00 0.00 53 1004.9
20260504172605 21 186 16.1 30.6 0.00 0.00 0.00 51 1004.7
20260504172102 21 217 20.9 32.2 0.00 0.00 0.00 51 1005.0
20260504171558 21 180 17.7 37.0 0.00 0.00 0.00 52 1005.1
20260504171055 21 214 14.5 22.5 0.00 0.00 0.00 51 1005.3
20260504170551 21 204 19.3 30.6 0.00 0.00 0.00 50 1005.4
20260504150935 18 212 14.5 19.3 0.00 0.00 0.00 54 1006.6
20260504150432 18 221 16.1 22.5 0.00 0.00 0.00 53 1006.5
20260504140858 16 217 14.5 20.9 0.00 0.00 0.00 60 1006.9
20260504140354 16 222 17.7 19.3 0.00 0.00 0.00 60 1007.0
20260504130319 13 191 11.3 19.3 0.00 0.00 0.00 66 1007.4
20260504120243 12 189 11.3 16.1 0.00 0.00 0.00 69 1007.6
20260504110710 10 182 9.7 14.5 0.00 0.00 0.00 75 1007.3
20260504110206 10 179 6.4 14.5 0.00 0.00 0.00 75 1007.7
20260504100130 10 181 6.4 11.3 0.00 0.00 0.00 74 1007.2
20260504081523 9 178 8.0 14.5 0.00 0.00 0.00 77 1007.8
20260504081019 8 174 6.4 12.9 0.00 0.00 0.00 77 1008.0
20260504080516 8 170 6.4 12.9 0.00 0.00 0.00 77 1007.9
20260504050334 9 168 6.4 12.9 0.00 0.00 0.00 75 1009.7
20260504045832 9 150 6.4 11.3 0.00 0.00 0.00 75 1009.9
20260504045332 9 162 8.0 14.5 0.00 0.00 0.00 75 1010.2
20260504044829 9 158 9.7 14.5 0.00 0.00 0.00 75 1009.7
20260504044326 9 149 9.7 17.7 0.00 0.00 0.00 75 1009.9
20260504043824 9 144 9.7 19.3 0.00 0.00 0.00 75 1010.1
20260504043320 9 161 4.8 14.5 0.00 0.00 0.00 75 1009.9
20260504042818 9 162 8.0 16.1 0.00 0.00 0.00 75 1010.0
20260504042314 9 155 8.0 9.7 0.00 0.00 0.00 75 1010.1
20260504041810 9 158 8.0 12.9 0.00 0.00 0.00 75 1010.3
20260504041306 9 148 8.0 9.7 0.00 0.00 0.00 75 1010.1
20260504040803 9 153 6.4 9.7 0.00 0.00 0.00 75 1010.2
20260504040300 9 167 9.7 12.9 0.00 0.00 0.00 76 1010.3
20260504035756 9 175 6.4 11.3 0.00 0.00 0.00 76 1010.2
20260504035254 9 156 8.0 11.3 0.00 0.00 0.00 76 1010.3
20260504034751 8 171 14.5 16.1 0.00 0.00 0.00 77 1010.3
20260504034248 8 178 6.4 9.7 0.00 0.00 0.00 77 1010.5
20260504033745 8 147 6.4 11.3 0.00 0.00 0.00 77 1010.5
20260504033243 8 147 9.7 14.5 0.00 0.00 0.00 78 1010.6
20260504032740 8 151 4.8 8.0 0.00 0.00 0.00 78 1010.8
20260504032237 8 139 6.4 11.3 0.00 0.00 0.00 78 1010.7
20260504031733 8 158 8.0 9.7 0.00 0.00 0.00 78 1010.6
20260504031231 8 167 6.4 11.3 0.00 0.00 0.00 79 1010.7
20260504030726 8 139 9.7 11.3 0.00 0.00 0.00 79 1010.6
20260504030224 8 146 6.4 12.9 0.00 0.00 0.00 79 1010.7
20260504025720 8 127 11.3 11.3 0.00 0.00 0.00 79 1010.8
20260504025217 8 153 9.7 14.5 0.00 0.00 0.00 79 1010.7
20260504024714 8 142 9.7 14.5 0.00 0.00 0.00 79 1011.0
20260504024211 8 147 9.7 17.7 0.00 0.00 0.00 78 1011.0
20260504023708 8 140 11.3 20.9 0.00 0.00 0.00 78 1011.0
20260504023203 8 137 11.3 17.7 0.00 0.00 0.00 78 1011.1
20260504022700 8 154 4.8 12.9 0.00 0.00 0.00 78 1011.0
20260504022156 8 148 11.3 17.7 0.00 0.00 0.00 78 1011.0
20260504021654 9 152 12.9 14.5 0.00 0.00 0.00 78 1011.2
20260504021150 9 172 9.7 19.3 0.00 0.00 0.00 77 1011.2
20260504020647 9 141 11.3 16.1 0.00 0.00 0.00 77 1011.0
20260504020143 9 156 14.5 14.5 0.00 0.00 0.00 77 1011.1
20260504015640 9 164 17.7 20.9 0.00 0.00 0.00 77 1011.1
20260504015137 9 163 6.4 17.7 0.00 0.00 0.00 76 1011.0
20260504014632 9 169 8.0 16.1 0.00 0.00 0.00 76 1011.0
20260504014130 9 164 11.3 17.7 0.00 0.00 0.00 75 1011.1
20260504013627 9 156 8.0 14.5 0.00 0.00 0.00 75 1010.9
20260504013124 10 142 9.7 17.7 0.00 0.00 0.00 74 1011.0
20260504012621 10 135 14.5 17.7 0.00 0.00 0.00 74 1011.3
20260504012120 10 107 6.4 24.1 0.00 0.00 0.00 73 1011.0
20260504011616 10 155 20.9 27.4 0.00 0.00 0.00 74 1011.2
20260504011112 10 161 11.3 20.9 0.00 0.00 0.00 73 1011.2
20260504010608 10 149 11.3 12.9 0.00 0.00 0.00 73 1011.1
20260504010104 10 139 9.7 19.3 0.00 0.00 0.00 73 1011.2
20260504005601 10 179 9.7 20.9 0.00 0.00 0.00 73 1011.2
20260504005058 10 155 9.7 20.9 0.00 0.00 0.00 73 1011.2
20260504004556 10 153 8.0 19.3 0.00 0.00 0.00 74 1011.1
20260504004053 10 156 9.7 20.9 0.00 0.00 0.00 74 1011.1
20260504003549 10 137 16.1 24.1 0.00 0.00 0.00 74 1011.4
20260504003046 10 156 14.5 25.7 0.00 0.00 0.00 74 1011.2
20260504002542 10 180 9.7 16.1 0.00 0.00 0.00 74 1011.4
20260504002040 10 145 11.3 16.1 0.00 0.00 0.00 74 1011.4
20260504001538 10 164 9.7 19.3 0.00 0.00 0.00 74 1011.3
20260504001034 10 157 12.9 16.1 0.00 0.00 0.00 75 1011.5
20260504000531 10 149 9.7 20.9 0.00 0.00 0.00 74 1011.4
20260504000029 10 154 14.5 24.1 0.00 0.00 0.00 74 1011.7
20260503235527 10 128 11.3 16.1 0.00 0.00 0.00 74 1011.7
20260503235023 10 143 8.0 27.4 0.00 0.00 0.00 73 1011.8
20260503234521 10 151 14.5 22.5 0.00 0.00 0.00 73 1011.9
20260503234019 10 172 11.3 22.5 0.00 0.00 0.00 72 1011.8
20260503233515 10 148 8.0 25.7 0.00 0.00 0.00 72 1011.9
20260503233011 10 176 14.5 22.5 0.00 0.00 0.00 72 1011.9
20260503232508 10 170 8.0 19.3 0.00 0.00 0.00 72 1011.8
20260503232006 10 140 24.1 29.0 0.00 0.00 0.00 72 1011.9
20260503231504 10 137 16.1 25.7 0.00 0.00 0.00 72 1012.2
20260503231000 10 185 16.1 19.3 0.00 0.00 0.00 71 1012.0
20260503230456 10 128 16.1 27.4 0.00 0.00 0.00 72 1012.1
20260503225954 10 151 24.1 27.4 0.00 0.00 0.00 73 1012.2
20260503225450 10 142 17.7 22.5 0.00 0.00 0.00 74 1012.4
20260503224946 10 175 9.7 22.5 0.00 0.00 0.00 74 1012.1
20260503224443 10 162 16.1 19.3 0.00 0.00 0.00 75 1012.4
20260503223941 10 145 16.1 17.7 0.00 0.00 0.00 75 1012.4
20260503223439 10 147 22.5 24.1 0.00 0.00 0.00 75 1012.3
20260503222934 10 143 14.5 25.7 0.00 0.00 0.00 75 1012.6
20260503222433 10 175 14.5 14.5 0.00 0.00 0.00 75 1012.6
20260503221931 10 147 11.3 22.5 0.00 0.00 0.00 75 1012.7
20260503221429 10 205 11.3 20.9 0.00 0.00 0.00 76 1012.6
20260503220925 10 164 9.7 22.5 0.00 0.00 0.00 76 1012.8
20260503220421 10 199 9.7 17.7 0.00 0.00 0.00 75 1012.8
20260503215919 10 173 16.1 24.1 0.00 0.00 0.00 75 1012.5